Regional Weather Roundup
Issued by NWS Kansas City/Pleasant Hill, MO

Home | Current Version | Previous Version | Graphics & Text | Print | Product List | Glossary Off
Versions: 1 2 3 4 5 6 7 8 9 10 11 12 13 14 15 16 17 18 19 20 21 22 23 24 25 26 27

000
ASUS43 KEAX 230810
RWREAX

WEATHER ROUNDUP FOR EASTERN KANSAS AND NORTHWEST MISSOURI
NATIONAL WEATHER SERVICE KANSAS CITY/PLEASANT HILL MO
300 AM CDT SUN APR 23 2017

KSZ040-057-103>105-MOZ028-029-037-043-230900-
...KANSAS CITY METROPOLITAN AREA...

CITY           SKY/WX    TMP DP  RH WIND       PRES   REMARKS
K.C. INTL      CLEAR     47  30  51 N6        30.17F
K.C. DOWNTOWN  CLEAR     46  35  65 NW3       30.17S
LEES SUMMIT    CLEAR     47  32  56 N5        30.16F
OLATHE - IXD   CLEAR     43  31  62 CALM      30.17F
OLATHE - OJC   CLEAR     46  32  58 N5        30.16F
LAWRENCE       CLEAR     38  35  89 NW7       30.18S WCI  33

$$

MOZ001>008-011>017-020>025-030>033-038>040-044>046-053-054-230900-
...NORTHERN AND CENTRAL MISSOURI...

CITY           SKY/WX    TMP DP  RH WIND       PRES   REMARKS
ST. JOSEPH     CLEAR     35  33  92 CALM      30.19S
MOSBY          SUNNY     37  34  87 CALM      30.17F
WHITEMAN AFB   CLEAR     43  37  79 N3        30.12F
CLINTON        CLEAR     43  36  75 N7        30.13F
SEDALIA        NOT AVBL
WARSAW         NOT AVBL
CHILLICOTHE      N/A     40  35  83 CALM      30.17F
KIRKSVILLE     CLEAR     36  33  89 CALM      30.15F

$$

MOZ041-047>049-056>058-063>065-088>090-097-230900-
...EASTERN AND SOUTHERN MISSOURI...

CITY           SKY/WX    TMP DP  RH WIND       PRES   REMARKS
ST. LOUIS INTL CLEAR     49  33  54 N9        30.08F
SPIRIT OF STL  CLEAR     44  37  76 CALM      30.09S
COLUMBIA       CLEAR     43  34  70 N8        30.11F
JEFFERSON CITY CLEAR     51  33  50 N6        30.11F
ROLLA          CLEAR     42  35  76 N5        30.07S
OSAGE BEACH    CLEAR     45  36  70 N6        30.11S
SPRINGFIELD    CLEAR     43  39  86 N8        30.08S
BRANSON        CLOUDY    46  45  93 CALM      30.07S
JOPLIN         CLEAR     42  40  92 N6        30.12F
WEST PLAINS    PTCLDY    48  39  71 N8        30.03F

$$

IAZ060-094-KSZ022-034>040-054-083-096-NEZ052-066-093-230900-
...KANSAS...SOUTHEAST NEBRASKA AND IOWA...

CITY           SKY/WX    TMP DP  RH WIND       PRES   REMARKS
TOPEKA         CLEAR     41  40  96 CALM      30.19S
MANHATTAN      CLEAR     37  34  89 CALM      30.20F
EMPORIA        CLEAR     41  36  82 NW5       30.18F
CHANUTE        CLEAR     45  35  68 N6        30.16S
WICHITA        CLEAR     42  37  82 NW6       30.20S
OMAHA          CLEAR     44  36  73 CALM      30.17F
LINCOLN        CLEAR     39  34  82 CALM      30.20F
FALLS CITY     CLEAR     39  35  86 W3        30.19F
LAMONI         CLEAR     41  33  73 W5        30.16F
DES MOINES     CLEAR     47  32  56 W3        30.16F

$$





USA.gov is the U.S. government's official web portal to all federal, state and local government web resources and services.